Time,TemperatureF,DewpointF,PressureIn,WindDirection,WindDirectionDegrees,WindSpeedMPH,WindSpeedGustMPH,Humidity,HourlyPrecipIn,Conditions,Clouds,dailyrainin,SoftwareType,DateUTC
2013-07-27 00:01:00,65.3,59.0,30.03,NE,40,0.0,0.0,80,0.00,CLR,,0.00,WeatherDisplay:10.37,2013-07-27 04:01:00,
2013-07-27 00:02:00,65.3,59.0,30.03,NE,40,0.0,0.0,80,0.00,CLR,,0.00,WeatherDisplay:10.37,2013-07-27 04:02:00,
2013-07-27 00:04:00,65.3,59.0,30.03,NE,40,0.0,0.0,80,0.00,CLR,,0.00,WeatherDisplay:10.37,2013-07-27 04:04:00,
2013-07-27 00:09:00,65.3,59.0,30.03,NE,40,0.0,0.0,80,0.00,CLR,,0.00,WeatherDisplay:10.37,2013-07-27 04:09:00,
2013-07-27 00:14:00,64.9,58.6,30.03,NE,40,0.0,0.0,80,0.00,CLR,,0.00,WeatherDisplay:10.37,2013-07-27 04:14:00,
2013-07-27 00:19:00,64.9,58.6,30.03,NE,40,0.0,0.0,80,0.00,CLR,,0.00,WeatherDisplay:10.37,2013-07-27 04:19:00,
2013-07-27 00:24:00,64.9,58.6,30.03,NE,40,0.0,0.0,80,0.00,CLR,,0.00,WeatherDisplay:10.37,2013-07-27 04:24:00,
2013-07-27 00:29:00,64.8,58.4,30.03,NE,40,0.0,0.0,80,0.00,CLR,,0.00,WeatherDisplay:10.37,2013-07-27 04:29:00,
2013-07-27 00:34:00,64.8,58.4,30.03,NE,40,0.0,0.0,80,0.00,CLR,,0.00,WeatherDisplay:10.37,2013-07-27 04:34:00,
2013-07-27 00:39:00,64.8,58.4,30.03,NE,40,0.0,0.0,80,0.00,CLR,,0.00,WeatherDisplay:10.37,2013-07-27 04:39:00,
2013-07-27 00:44:00,64.6,58.3,30.03,NE,40,0.0,0.0,80,0.00,CLR,,0.00,WeatherDisplay:10.37,2013-07-27 04:44:00,
2013-07-27 00:49:00,64.4,58.1,30.03,NE,40,0.0,0.0,80,0.00,CLR,,0.00,WeatherDisplay:10.37,2013-07-27 04:49:00,
2013-07-27 00:54:00,64.2,57.9,30.03,NE,40,0.0,0.0,80,0.00,CLR,,0.00,WeatherDisplay:10.37,2013-07-27 04:54:00,
2013-07-27 00:59:00,64.2,57.9,30.03,NE,40,0.0,0.0,80,0.00,CLR,,0.00,WeatherDisplay:10.37,2013-07-27 04:59:00,
2013-07-27 01:04:00,64.0,57.7,30.03,NE,40,0.0,0.0,80,0.00,CLR,,0.00,WeatherDisplay:10.37,2013-07-27 05:04:00,
2013-07-27 01:09:00,63.9,57.6,30.03,NE,40,0.0,0.0,80,0.00,CLR,,0.00,WeatherDisplay:10.37,2013-07-27 05:09:00,
2013-07-27 01:14:00,63.9,57.6,30.03,NE,40,0.0,0.0,80,0.00,CLR,,0.00,WeatherDisplay:10.37,2013-07-27 05:14:00,
2013-07-27 01:19:00,63.9,58.6,30.03,NE,40,0.0,0.0,83,0.00,CLR,,0.00,WeatherDisplay:10.37,2013-07-27 05:19:00,
2013-07-27 01:24:00,63.7,58.4,30.03,NE,40,0.0,0.0,83,0.00,CLR,,0.00,WeatherDisplay:10.37,2013-07-27 05:24:00,
2013-07-27 01:29:00,63.7,58.4,30.03,NE,40,0.0,0.0,83,0.00,CLR,,0.00,WeatherDisplay:10.37,2013-07-27 05:29:00,
2013-07-27 01:34:00,63.5,58.2,30.03,NE,40,0.0,0.0,83,0.00,CLR,,0.00,WeatherDisplay:10.37,2013-07-27 05:34:00,
2013-07-27 01:39:00,63.3,58.1,30.03,NE,40,0.0,0.0,83,0.00,CLR,,0.00,WeatherDisplay:10.37,2013-07-27 05:39:00,
2013-07-27 01:44:00,63.3,58.1,30.03,NE,40,0.0,0.0,83,0.00,CLR,,0.00,WeatherDisplay:10.37,2013-07-27 05:44:00,
2013-07-27 01:49:00,63.3,58.1,30.03,NE,40,0.0,0.0,83,0.00,CLR,,0.00,WeatherDisplay:10.37,2013-07-27 05:49:00,
2013-07-27 01:54:00,63.1,57.9,30.03,NE,40,0.0,0.0,83,0.00,CLR,,0.00,WeatherDisplay:10.37,2013-07-27 05:54:00,
2013-07-27 01:59:00,63.1,57.9,30.03,NE,40,0.0,0.0,83,0.00,CLR,,0.00,WeatherDisplay:10.37,2013-07-27 05:59:00,
2013-07-27 02:04:00,63.1,59.8,30.03,NE,40,0.0,0.0,89,0.00,CLR,,0.00,WeatherDisplay:10.37,2013-07-27 06:04:00,
2013-07-27 02:09:00,63.0,59.7,30.03,NE,40,0.0,0.0,89,0.00,CLR,,0.00,WeatherDisplay:10.37,2013-07-27 06:09:00,
2013-07-27 02:14:00,63.0,59.7,30.03,NE,40,0.0,0.0,89,0.00,CLR,,0.00,WeatherDisplay:10.37,2013-07-27 06:14:00,
2013-07-27 02:19:00,63.0,59.7,30.03,NE,40,0.0,0.0,89,0.00,CLR,,0.00,WeatherDisplay:10.37,2013-07-27 06:19:00,
2013-07-27 02:24:00,62.8,59.5,30.03,NE,40,0.0,0.0,89,0.00,CLR,,0.00,WeatherDisplay:10.37,2013-07-27 06:24:00,
2013-07-27 02:29:00,62.8,59.5,30.03,NE,40,0.0,0.0,89,0.00,CLR,,0.00,WeatherDisplay:10.37,2013-07-27 06:29:00,
2013-07-27 02:34:00,62.6,59.3,30.03,NE,40,0.0,0.0,89,0.00,CLR,,0.00,WeatherDisplay:10.37,2013-07-27 06:34:00,
2013-07-27 02:39:00,62.8,59.5,30.03,NE,40,0.0,0.0,89,0.00,CLR,,0.00,WeatherDisplay:10.37,2013-07-27 06:39:00,
2013-07-27 02:44:00,62.6,59.3,30.03,NE,40,0.0,0.0,89,0.00,CLR,,0.00,WeatherDisplay:10.37,2013-07-27 06:44:00,
2013-07-27 02:49:00,62.4,59.1,30.03,NE,40,0.0,0.0,89,0.00,CLR,,0.00,WeatherDisplay:10.37,2013-07-27 06:49:00,
2013-07-27 02:54:00,62.4,59.1,30.03,NE,40,0.0,0.0,89,0.00,CLR,,0.00,WeatherDisplay:10.37,2013-07-27 06:54:00,
2013-07-27 02:59:00,62.2,59.0,30.03,NE,40,0.0,0.0,89,0.00,CLR,,0.00,WeatherDisplay:10.37,2013-07-27 06:59:00,
2013-07-27 03:04:00,62.2,59.0,30.03,NE,40,0.0,0.0,89,0.00,CLR,,0.00,WeatherDisplay:10.37,2013-07-27 07:04:00,
2013-07-27 03:09:00,62.1,58.8,30.03,NE,40,0.0,0.0,89,0.00,CLR,,0.00,WeatherDisplay:10.37,2013-07-27 07:09:00,
2013-07-27 03:14:00,62.1,58.8,30.03,NE,40,0.0,0.0,89,0.00,CLR,,0.00,WeatherDisplay:10.37,2013-07-27 07:14:00,
2013-07-27 03:19:00,61.9,59.8,30.03,NE,40,0.0,0.0,93,0.00,FEW,,0.00,WeatherDisplay:10.37,2013-07-27 07:19:00,
2013-07-27 03:24:00,61.9,59.8,30.03,NE,40,0.0,0.0,93,0.00,FEW,,0.00,WeatherDisplay:10.37,2013-07-27 07:24:00,
2013-07-27 03:29:00,61.9,59.8,30.03,NE,40,0.0,0.0,93,0.00,FEW,,0.00,WeatherDisplay:10.37,2013-07-27 07:29:00,
2013-07-27 03:34:00,61.9,59.8,30.03,NE,40,0.0,0.0,93,0.00,FEW,,0.00,WeatherDisplay:10.37,2013-07-27 07:34:00,
2013-07-27 03:39:00,61.7,59.7,30.03,NE,40,0.0,0.0,93,0.00,FEW,,0.00,WeatherDisplay:10.37,2013-07-27 07:39:00,
2013-07-27 03:44:00,61.7,59.7,30.03,NE,40,0.0,0.0,93,0.00,FEW,,0.00,WeatherDisplay:10.37,2013-07-27 07:44:00,
2013-07-27 03:49:00,61.5,59.5,30.03,NE,40,0.0,0.0,93,0.00,FEW,,0.00,WeatherDisplay:10.37,2013-07-27 07:49:00,
2013-07-27 03:54:00,61.5,59.5,30.03,NE,40,0.0,0.0,93,0.00,FEW,,0.00,WeatherDisplay:10.37,2013-07-27 07:54:00,
2013-07-27 03:59:00,61.5,59.5,30.03,NE,40,0.0,0.0,93,0.00,FEW,,0.00,WeatherDisplay:10.37,2013-07-27 07:59:00,
2013-07-27 04:04:00,61.3,58.1,30.03,NE,40,0.0,0.0,89,0.00,FEW,,0.00,WeatherDisplay:10.37,2013-07-27 08:04:00,
2013-07-27 04:09:00,61.2,57.9,30.03,NE,40,0.0,0.0,89,0.00,FEW,,0.00,WeatherDisplay:10.37,2013-07-27 08:09:00,
2013-07-27 04:14:00,61.0,57.7,30.03,NE,40,0.0,0.0,89,0.00,FEW,,0.00,WeatherDisplay:10.37,2013-07-27 08:14:00,
2013-07-27 04:19:00,61.0,57.7,30.03,NE,40,0.0,0.0,89,0.00,FEW,,0.00,WeatherDisplay:10.37,2013-07-27 08:19:00,
2013-07-27 04:24:00,61.0,57.7,30.03,NE,40,0.0,0.0,89,0.00,FEW,,0.00,WeatherDisplay:10.37,2013-07-27 08:24:00,
2013-07-27 04:29:00,60.8,57.5,30.03,NE,40,0.0,0.0,89,0.00,FEW,,0.00,WeatherDisplay:10.37,2013-07-27 08:29:00,
2013-07-27 04:34:00,60.8,57.5,30.03,NE,40,0.0,0.0,89,0.00,FEW,,0.00,WeatherDisplay:10.37,2013-07-27 08:34:00,
2013-07-27 04:39:00,61.0,57.7,30.03,NE,40,0.0,0.0,89,0.00,FEW,,0.00,WeatherDisplay:10.37,2013-07-27 08:39:00,
2013-07-27 04:44:00,61.0,57.7,30.03,NE,40,0.0,0.0,89,0.00,FEW,,0.00,WeatherDisplay:10.37,2013-07-27 08:44:00,
2013-07-27 04:49:00,61.0,57.7,30.03,NE,40,0.0,0.0,89,0.00,FEW,,0.00,WeatherDisplay:10.37,2013-07-27 08:49:00,
2013-07-27 04:54:00,60.8,57.5,30.03,NE,40,0.0,0.0,89,0.00,FEW,,0.00,WeatherDisplay:10.37,2013-07-27 08:54:00,
2013-07-27 04:59:00,60.6,57.4,30.03,NE,40,0.0,0.0,89,0.00,FEW,,0.00,WeatherDisplay:10.37,2013-07-27 08:59:00,
2013-07-27 05:04:00,60.4,57.2,30.03,NE,40,0.0,0.0,89,0.00,FEW,,0.00,WeatherDisplay:10.37,2013-07-27 09:04:00,
2013-07-27 05:09:00,60.4,57.2,30.03,NE,40,0.0,0.0,89,0.00,FEW,,0.00,WeatherDisplay:10.37,2013-07-27 09:09:00,
2013-07-27 05:14:00,60.4,57.2,30.03,NE,40,0.0,0.0,89,0.00,FEW,,0.00,WeatherDisplay:10.37,2013-07-27 09:14:00,
2013-07-27 05:19:00,60.3,58.2,30.03,NE,40,0.0,0.0,93,0.00,BKN,,0.00,WeatherDisplay:10.37,2013-07-27 09:19:00,
2013-07-27 05:24:00,60.1,58.0,30.03,NE,40,0.0,0.0,93,0.00,BKN,,0.00,WeatherDisplay:10.37,2013-07-27 09:24:00,
2013-07-27 05:29:00,60.1,58.0,30.03,NE,40,0.0,0.0,93,0.00,BKN,,0.00,WeatherDisplay:10.37,2013-07-27 09:29:00,
2013-07-27 05:34:00,59.9,57.9,30.03,NE,40,0.0,0.0,93,0.00,BKN,,0.00,WeatherDisplay:10.37,2013-07-27 09:34:00,
2013-07-27 05:39:00,59.9,57.9,30.03,NE,40,0.0,0.0,93,0.00,BKN,,0.00,WeatherDisplay:10.37,2013-07-27 09:39:00,
2013-07-27 05:44:00,59.9,57.9,30.03,NE,40,0.0,0.0,93,0.00,BKN,,0.00,WeatherDisplay:10.37,2013-07-27 09:44:00,
2013-07-27 05:49:00,59.7,57.7,30.03,NE,40,0.0,0.0,93,0.00,BKN,,0.00,WeatherDisplay:10.37,2013-07-27 09:49:00,
2013-07-27 05:54:00,59.7,57.7,30.03,NE,40,0.0,0.0,93,0.00,BKN,,0.00,WeatherDisplay:10.37,2013-07-27 09:54:00,
2013-07-27 05:59:00,59.5,57.5,30.03,NE,40,0.0,0.0,93,0.00,BKN,,0.00,WeatherDisplay:10.37,2013-07-27 09:59:00,
2013-07-27 06:04:00,59.7,57.7,30.03,NE,40,0.0,0.0,93,0.00,BKN,,0.00,WeatherDisplay:10.37,2013-07-27 10:04:00,
2013-07-27 06:10:00,59.7,57.7,30.03,NE,40,0.0,0.0,93,0.00,BKN,,0.00,WeatherDisplay:10.37,2013-07-27 10:10:00,
2013-07-27 06:15:00,59.7,57.7,30.03,NE,40,0.0,0.0,93,0.00,BKN,,0.00,WeatherDisplay:10.37,2013-07-27 10:15:00,
2013-07-27 06:20:00,59.5,58.4,30.06,NE,40,0.0,0.0,96,0.00,OVC,,0.00,WeatherDisplay:10.37,2013-07-27 10:20:00,
2013-07-27 06:25:00,59.7,58.6,30.06,NE,40,0.0,0.0,96,0.00,OVC,,0.00,WeatherDisplay:10.37,2013-07-27 10:25:00,
2013-07-27 06:30:00,59.9,58.8,30.06,NE,40,0.0,0.0,96,0.00,OVC,,0.00,WeatherDisplay:10.37,2013-07-27 10:30:00,
2013-07-27 06:35:00,60.1,58.9,30.06,NE,40,0.0,0.0,96,0.00,OVC,,0.00,WeatherDisplay:10.37,2013-07-27 10:35:00,
2013-07-27 06:40:00,60.1,58.9,30.06,NE,40,0.0,0.0,96,0.00,OVC,,0.00,WeatherDisplay:10.37,2013-07-27 10:40:00,
2013-07-27 06:45:00,60.1,58.9,30.06,NE,40,0.0,0.0,96,0.00,OVC,,0.00,WeatherDisplay:10.37,2013-07-27 10:45:00,
2013-07-27 06:50:00,60.1,58.9,30.06,NE,40,0.0,0.0,96,0.00,OVC,,0.00,WeatherDisplay:10.37,2013-07-27 10:50:00,
2013-07-27 06:55:00,60.1,58.9,30.06,NE,40,0.0,0.0,96,0.00,OVC,,0.00,WeatherDisplay:10.37,2013-07-27 10:55:00,
2013-07-27 07:00:00,60.3,59.1,30.06,NE,40,0.0,0.0,96,0.00,OVC,,0.00,WeatherDisplay:10.37,2013-07-27 11:00:00,
2013-07-27 07:05:00,60.6,59.5,30.06,NE,40,0.0,0.0,96,0.00,OVC,,0.00,WeatherDisplay:10.37,2013-07-27 11:05:00,
2013-07-27 07:10:00,61.0,59.8,30.06,NE,40,0.0,0.0,96,0.00,OVC,,0.00,WeatherDisplay:10.37,2013-07-27 11:10:00,
2013-07-27 07:15:00,61.0,59.8,30.06,NE,40,0.0,0.0,96,0.00,OVC,,0.00,WeatherDisplay:10.37,2013-07-27 11:15:00,
2013-07-27 07:20:00,61.0,59.8,30.06,NE,40,0.0,0.0,96,0.00,OVC,,0.00,WeatherDisplay:10.37,2013-07-27 11:20:00,
2013-07-27 07:25:00,61.3,60.2,30.06,NE,40,0.0,0.0,96,0.00,OVC,,0.00,WeatherDisplay:10.37,2013-07-27 11:25:00,
2013-07-27 07:30:00,61.3,60.2,30.06,NE,40,0.0,0.0,96,0.00,OVC,,0.00,WeatherDisplay:10.37,2013-07-27 11:30:00,
2013-07-27 07:35:00,61.7,59.7,30.06,NE,40,0.0,0.0,93,0.00,BKN,,0.00,WeatherDisplay:10.37,2013-07-27 11:35:00,
2013-07-27 07:40:00,61.9,59.8,30.06,NE,40,0.0,0.0,93,0.00,BKN,,0.00,WeatherDisplay:10.37,2013-07-27 11:40:00,
2013-07-27 07:45:00,62.2,60.2,30.06,NE,40,0.0,0.0,93,0.00,BKN,,0.00,WeatherDisplay:10.37,2013-07-27 11:45:00,
2013-07-27 07:50:00,62.6,60.5,30.06,NE,40,0.0,0.0,93,0.00,BKN,,0.00,WeatherDisplay:10.37,2013-07-27 11:50:00,
2013-07-27 07:55:00,63.0,60.9,30.06,NE,40,0.0,0.0,93,0.00,BKN,,0.00,WeatherDisplay:10.37,2013-07-27 11:55:00,
2013-07-27 08:00:00,63.3,61.3,30.06,NE,40,0.0,0.0,93,0.00,BKN,,0.00,WeatherDisplay:10.37,2013-07-27 12:00:00,
2013-07-27 08:05:00,63.5,61.4,30.06,NE,40,0.0,0.0,93,0.00,BKN,,0.00,WeatherDisplay:10.37,2013-07-27 12:05:00,
2013-07-27 08:10:00,63.9,61.8,30.06,NE,40,0.0,0.0,93,0.00,BKN,,0.00,WeatherDisplay:10.37,2013-07-27 12:10:00,
2013-07-27 08:15:00,64.2,62.2,30.06,NE,40,0.0,0.0,93,0.00,BKN,,0.00,WeatherDisplay:10.37,2013-07-27 12:15:00,
2013-07-27 08:20:00,64.2,63.1,30.06,NE,40,0.0,0.0,96,0.00,BKN,,0.00,WeatherDisplay:10.37,2013-07-27 12:20:00,
2013-07-27 08:25:00,64.4,63.2,30.06,NE,40,0.0,0.0,96,0.00,BKN,,0.00,WeatherDisplay:10.37,2013-07-27 12:25:00,
2013-07-27 08:30:00,64.8,63.6,30.06,NE,40,0.0,0.0,96,0.00,BKN,,0.00,WeatherDisplay:10.37,2013-07-27 12:30:00,
2013-07-27 08:35:00,65.3,63.2,30.06,NE,40,0.0,0.0,93,0.00,SCT,,0.00,WeatherDisplay:10.37,2013-07-27 12:35:00,
2013-07-27 08:40:00,65.7,63.6,30.06,NE,40,0.0,0.0,93,0.00,SCT,,0.00,WeatherDisplay:10.37,2013-07-27 12:40:00,
2013-07-27 08:45:00,65.7,63.6,30.06,NE,40,0.0,0.0,93,0.00,SCT,,0.00,WeatherDisplay:10.37,2013-07-27 12:45:00,
2013-07-27 08:50:00,66.0,63.9,30.06,NE,40,0.0,0.0,93,0.00,SCT,,0.00,WeatherDisplay:10.37,2013-07-27 12:50:00,
2013-07-27 08:55:00,66.4,64.3,30.06,NE,40,0.0,0.0,93,0.00,SCT,,0.00,WeatherDisplay:10.37,2013-07-27 12:55:00,
2013-07-27 09:00:00,66.7,64.7,30.06,NE,40,0.0,0.0,93,0.00,SCT,,0.00,WeatherDisplay:10.37,2013-07-27 13:00:00,
2013-07-27 09:05:00,66.9,64.8,30.06,NE,40,0.0,0.0,93,0.00,SCT,,0.00,WeatherDisplay:10.37,2013-07-27 13:05:00,
2013-07-27 09:10:00,67.3,65.2,30.06,NE,40,0.0,0.0,93,0.00,SCT,,0.00,WeatherDisplay:10.37,2013-07-27 13:10:00,
2013-07-27 09:15:00,67.6,65.5,30.06,NE,40,0.0,0.0,93,0.00,SCT,,0.00,WeatherDisplay:10.37,2013-07-27 13:15:00,
2013-07-27 09:20:00,67.8,61.8,30.06,NE,40,0.0,0.0,81,0.00,SCT,,0.00,WeatherDisplay:10.37,2013-07-27 13:20:00,
2013-07-27 09:25:00,68.0,61.9,30.06,NE,40,0.0,0.0,81,0.00,SCT,,0.00,WeatherDisplay:10.37,2013-07-27 13:25:00,
2013-07-27 09:30:00,67.8,61.8,30.06,NE,40,0.0,0.0,81,0.00,SCT,,0.00,WeatherDisplay:10.37,2013-07-27 13:30:00,
2013-07-27 09:35:00,68.2,62.1,30.06,NE,40,0.0,0.0,81,0.00,SCT,,0.00,WeatherDisplay:10.37,2013-07-27 13:35:00,
2013-07-27 09:40:00,68.4,62.3,30.06,NE,40,0.0,0.0,81,0.00,SCT,,0.00,WeatherDisplay:10.37,2013-07-27 13:40:00,
2013-07-27 09:45:00,68.7,62.7,30.06,NE,40,0.0,0.0,81,0.00,SCT,,0.00,WeatherDisplay:10.37,2013-07-27 13:45:00,
2013-07-27 09:50:00,68.9,62.8,30.06,NE,40,0.0,0.0,81,0.00,SCT,,0.00,WeatherDisplay:10.37,2013-07-27 13:50:00,
2013-07-27 09:55:00,69.1,63.0,30.06,NE,40,0.0,0.0,81,0.00,SCT,,0.00,WeatherDisplay:10.37,2013-07-27 13:55:00,
2013-07-27 10:00:00,69.4,63.4,30.06,NE,40,0.0,0.0,81,0.00,SCT,,0.00,WeatherDisplay:10.37,2013-07-27 14:00:00,
2013-07-27 10:05:00,69.8,59.6,30.06,NE,40,0.0,0.0,70,0.00,SCT,,0.00,WeatherDisplay:10.37,2013-07-27 14:05:00,
2013-07-27 10:10:00,70.2,59.9,30.06,NE,40,0.0,0.0,70,0.00,SCT,,0.00,WeatherDisplay:10.37,2013-07-27 14:10:00,
2013-07-27 10:15:00,70.5,60.3,30.06,NE,40,0.0,0.0,70,0.00,SCT,,0.00,WeatherDisplay:10.37,2013-07-27 14:15:00,
2013-07-27 10:20:00,70.9,60.6,30.03,NE,40,0.0,0.0,70,0.00,SCT,,0.00,WeatherDisplay:10.37,2013-07-27 14:20:00,
2013-07-27 10:25:00,70.9,60.6,30.03,NE,40,0.0,0.0,70,0.00,SCT,,0.00,WeatherDisplay:10.37,2013-07-27 14:25:00,
2013-07-27 10:30:00,70.9,60.6,30.03,NE,40,0.0,0.0,70,0.00,SCT,,0.00,WeatherDisplay:10.37,2013-07-27 14:30:00,
2013-07-27 10:35:00,71.1,60.8,30.06,NE,40,0.0,0.0,70,0.00,SCT,,0.00,WeatherDisplay:10.37,2013-07-27 14:35:00,
2013-07-27 10:40:00,71.1,60.8,30.06,NE,40,0.0,0.0,70,0.00,SCT,,0.00,WeatherDisplay:10.37,2013-07-27 14:40:00,
2013-07-27 10:45:00,71.4,61.1,30.06,NE,40,0.0,0.0,70,0.00,SCT,,0.00,WeatherDisplay:10.37,2013-07-27 14:45:00,
2013-07-27 10:50:00,71.8,61.5,30.06,NE,40,0.0,0.0,70,0.00,SCT,,0.00,WeatherDisplay:10.37,2013-07-27 14:50:00,
2013-07-27 10:55:00,72.1,61.8,30.06,NE,40,0.0,0.0,70,0.00,SCT,,0.00,WeatherDisplay:10.37,2013-07-27 14:55:00,
2013-07-27 11:00:00,72.3,62.0,30.06,NE,40,0.0,0.0,70,0.00,SCT,,0.00,WeatherDisplay:10.37,2013-07-27 15:00:00,
2013-07-27 11:05:00,72.5,60.5,30.03,SE,140,5.8,5.8,66,0.00,BKN,,0.00,WeatherDisplay:10.37,2013-07-27 15:05:00,
2013-07-27 11:10:00,72.7,60.7,30.03,SE,140,5.8,5.8,66,0.00,BKN,,0.00,WeatherDisplay:10.37,2013-07-27 15:10:00,
2013-07-27 11:15:00,73.0,61.0,30.03,SE,140,5.8,5.8,66,0.00,BKN,,0.00,WeatherDisplay:10.37,2013-07-27 15:15:00,
2013-07-27 11:20:00,73.4,61.3,30.03,SE,140,5.8,5.8,66,0.00,BKN,,0.00,WeatherDisplay:10.37,2013-07-27 15:20:00,
2013-07-27 11:25:00,73.9,61.9,30.03,SE,140,5.8,5.8,66,0.00,BKN,,0.00,WeatherDisplay:10.37,2013-07-27 15:25:00,
2013-07-27 11:30:00,73.9,61.9,30.03,SE,140,5.8,5.8,66,0.00,BKN,,0.00,WeatherDisplay:10.37,2013-07-27 15:30:00,
2013-07-27 11:35:00,74.1,62.0,30.03,SE,140,5.8,5.8,66,0.00,BKN,,0.00,WeatherDisplay:10.37,2013-07-27 15:35:00,
2013-07-27 11:40:00,74.5,62.4,30.03,SE,140,5.8,5.8,66,0.00,BKN,,0.00,WeatherDisplay:10.37,2013-07-27 15:40:00,
2013-07-27 11:45:00,74.7,62.5,30.03,SE,140,5.8,5.8,66,0.00,BKN,,0.00,WeatherDisplay:10.37,2013-07-27 15:45:00,
2013-07-27 11:50:00,74.8,62.7,30.03,SE,140,5.8,5.8,66,0.00,BKN,,0.00,WeatherDisplay:10.37,2013-07-27 15:50:00,
2013-07-27 11:55:00,75.2,63.1,30.03,SE,140,5.8,5.8,66,0.00,BKN,,0.00,WeatherDisplay:10.37,2013-07-27 15:55:00,
2013-07-27 12:00:00,75.4,63.2,30.03,SE,140,5.8,5.8,66,0.00,BKN,,0.00,WeatherDisplay:10.37,2013-07-27 16:00:00,
2013-07-27 12:05:00,75.4,58.1,30.03,SSE,160,5.8,5.8,55,0.00,BKN,,0.00,WeatherDisplay:10.37,2013-07-27 16:05:00,
2013-07-27 12:10:00,75.7,58.4,30.03,SSE,160,5.8,5.8,55,0.00,BKN,,0.00,WeatherDisplay:10.37,2013-07-27 16:10:00,
2013-07-27 12:15:00,75.7,58.4,30.03,SSE,160,5.8,5.8,55,0.00,BKN,,0.00,WeatherDisplay:10.37,2013-07-27 16:15:00,
2013-07-27 12:20:00,75.9,58.6,30.03,SSE,160,5.8,5.8,55,0.00,BKN,,0.00,WeatherDisplay:10.37,2013-07-27 16:20:00,
2013-07-27 12:25:00,75.9,58.6,30.03,SSE,160,5.8,5.8,55,0.00,BKN,,0.00,WeatherDisplay:10.37,2013-07-27 16:25:00,
2013-07-27 12:30:00,75.9,58.6,30.03,SSE,160,5.8,5.8,55,0.00,BKN,,0.00,WeatherDisplay:10.37,2013-07-27 16:30:00,
2013-07-27 12:35:00,75.9,58.6,30.03,SSE,160,5.8,5.8,55,0.00,BKN,,0.00,WeatherDisplay:10.37,2013-07-27 16:35:00,
2013-07-27 12:40:00,75.9,58.6,30.03,SSE,160,5.8,5.8,55,0.00,BKN,,0.00,WeatherDisplay:10.37,2013-07-27 16:40:00,
2013-07-27 12:45:00,75.9,58.6,30.03,SSE,160,5.8,5.8,55,0.00,BKN,,0.00,WeatherDisplay:10.37,2013-07-27 16:45:00,
2013-07-27 12:50:00,75.9,58.6,30.03,SSE,160,5.8,5.8,55,0.00,BKN,,0.00,WeatherDisplay:10.37,2013-07-27 16:50:00,
2013-07-27 12:55:00,75.9,58.6,30.03,SSE,160,5.8,5.8,55,0.00,BKN,,0.00,WeatherDisplay:10.37,2013-07-27 16:55:00,
2013-07-27 13:00:00,75.9,58.6,30.03,SSE,160,5.8,5.8,55,0.00,BKN,,0.00,WeatherDisplay:10.37,2013-07-27 17:00:00,
2013-07-27 13:05:00,75.9,54.8,30.00,South,180,9.2,9.2,48,0.00,BKN,,0.00,WeatherDisplay:10.37,2013-07-27 17:05:00,
2013-07-27 13:10:00,75.9,54.8,30.00,South,180,9.2,9.2,48,0.00,BKN,,0.00,WeatherDisplay:10.37,2013-07-27 17:10:00,
2013-07-27 13:15:00,75.9,54.8,30.00,South,180,9.2,9.2,48,0.00,BKN,,0.00,WeatherDisplay:10.37,2013-07-27 17:15:00,
2013-07-27 13:20:00,75.9,54.8,30.00,South,180,9.2,9.2,48,0.00,BKN,,0.00,WeatherDisplay:10.37,2013-07-27 17:20:00,
2013-07-27 13:25:00,75.9,54.8,30.00,South,180,9.2,9.2,48,0.00,BKN,,0.00,WeatherDisplay:10.37,2013-07-27 17:25:00,
2013-07-27 13:30:00,75.9,54.8,30.00,South,180,9.2,9.2,48,0.00,BKN,,0.00,WeatherDisplay:10.37,2013-07-27 17:30:00,
2013-07-27 13:35:00,75.9,54.8,30.00,South,180,9.2,9.2,48,0.00,BKN,,0.00,WeatherDisplay:10.37,2013-07-27 17:35:00,
2013-07-27 13:40:00,77.9,56.6,30.00,South,180,9.2,9.2,48,0.00,BKN,,0.00,WeatherDisplay:10.37,2013-07-27 17:40:00,
2013-07-27 13:45:00,77.9,56.6,30.00,South,180,9.2,9.2,48,0.00,BKN,,0.00,WeatherDisplay:10.37,2013-07-27 17:45:00,
2013-07-27 13:50:00,77.9,56.6,30.00,South,180,9.2,9.2,48,0.00,BKN,,0.00,WeatherDisplay:10.37,2013-07-27 17:50:00,
2013-07-27 13:55:00,77.9,56.6,30.00,South,180,9.2,9.2,48,0.00,BKN,,0.00,WeatherDisplay:10.37,2013-07-27 17:55:00,
2013-07-27 14:00:00,77.9,56.6,30.00,South,180,9.2,9.2,48,0.00,BKN,,0.00,WeatherDisplay:10.37,2013-07-27 18:00:00,
2013-07-27 14:05:00,78.3,57.0,30.00,South,180,9.2,9.2,48,0.00,BKN,,0.00,WeatherDisplay:10.37,2013-07-27 18:05:00,
2013-07-27 14:10:00,78.3,57.0,30.00,South,180,9.2,9.2,48,0.00,BKN,,0.00,WeatherDisplay:10.37,2013-07-27 18:10:00,
2013-07-27 14:13:00,78.3,57.0,30.00,South,180,9.2,9.2,48,0.00,BKN,,0.00,WeatherDisplay:10.37,2013-07-27 18:13:00,
2013-07-27 14:18:00,78.6,49.4,30.00,SSE,160,12.7,19.6,36,0.00,BKN,,0.00,WeatherDisplay:10.37,2013-07-27 18:18:00,
2013-07-27 14:23:00,78.6,49.4,30.00,SSE,160,12.7,19.6,36,0.00,BKN,,0.00,WeatherDisplay:10.37,2013-07-27 18:23:00,
2013-07-27 14:28:00,78.6,49.4,30.00,SSE,160,12.7,19.6,36,0.00,BKN,,0.00,WeatherDisplay:10.37,2013-07-27 18:28:00,
2013-07-27 14:33:00,78.6,49.4,30.00,SSE,160,12.7,19.6,36,0.00,BKN,,0.00,WeatherDisplay:10.37,2013-07-27 18:33:00,
2013-07-27 14:38:00,78.6,49.4,30.00,SSE,160,12.7,19.6,36,0.00,BKN,,0.00,WeatherDisplay:10.37,2013-07-27 18:38:00,
2013-07-27 14:43:00,78.6,49.4,30.00,SSE,160,12.7,19.6,36,0.00,BKN,,0.00,WeatherDisplay:10.37,2013-07-27 18:43:00,
2013-07-27 14:48:00,78.6,49.4,30.00,SSE,160,12.7,19.6,36,0.00,BKN,,0.00,WeatherDisplay:10.37,2013-07-27 18:48:00,
2013-07-27 14:53:00,78.8,49.6,30.00,SSE,160,12.7,19.6,36,0.00,BKN,,0.00,WeatherDisplay:10.37,2013-07-27 18:53:00,
2013-07-27 14:58:00,78.8,49.6,30.00,SSE,160,12.7,19.6,36,0.00,BKN,,0.00,WeatherDisplay:10.37,2013-07-27 18:58:00,
2013-07-27 15:03:00,78.8,53.8,30.00,South,180,6.9,6.9,42,0.00,BKN,,0.00,WeatherDisplay:10.37,2013-07-27 19:03:00,
2013-07-27 15:08:00,78.8,53.8,29.98,South,180,6.9,6.9,42,0.00,BKN,,0.00,WeatherDisplay:10.37,2013-07-27 19:08:00,
2013-07-27 15:13:00,78.8,53.8,29.98,South,180,6.9,6.9,42,0.00,BKN,,0.00,WeatherDisplay:10.37,2013-07-27 19:13:00,
2013-07-27 15:18:00,78.8,53.8,29.98,South,180,6.9,6.9,42,0.00,BKN,,0.00,WeatherDisplay:10.37,2013-07-27 19:18:00,
2013-07-27 15:23:00,78.8,53.8,29.98,South,180,6.9,6.9,42,0.00,BKN,,0.00,WeatherDisplay:10.37,2013-07-27 19:23:00,
2013-07-27 15:28:00,78.6,53.6,29.98,South,180,6.9,6.9,42,0.00,BKN,,0.00,WeatherDisplay:10.37,2013-07-27 19:28:00,
2013-07-27 15:33:00,78.6,53.6,29.98,South,180,6.9,6.9,42,0.00,BKN,,0.00,WeatherDisplay:10.37,2013-07-27 19:33:00,
2013-07-27 15:38:00,78.8,53.8,29.98,South,180,6.9,6.9,42,0.00,BKN,,0.00,WeatherDisplay:10.37,2013-07-27 19:38:00,
2013-07-27 15:43:00,78.8,53.8,29.98,South,180,6.9,6.9,42,0.00,BKN,,0.00,WeatherDisplay:10.37,2013-07-27 19:43:00,
2013-07-27 15:48:00,78.8,53.8,29.98,South,180,6.9,6.9,42,0.00,BKN,,0.00,WeatherDisplay:10.37,2013-07-27 19:48:00,
2013-07-27 15:53:00,78.8,53.8,29.98,South,180,6.9,6.9,42,0.00,BKN,,0.00,WeatherDisplay:10.37,2013-07-27 19:53:00,
2013-07-27 15:58:00,78.8,53.8,29.98,South,180,6.9,6.9,42,0.00,BKN,,0.00,WeatherDisplay:10.37,2013-07-27 19:58:00,
2013-07-27 16:03:00,78.4,53.4,29.98,South,180,6.9,6.9,42,0.00,BKN,,0.00,WeatherDisplay:10.37,2013-07-27 20:03:00,
2013-07-27 16:08:00,78.4,53.4,29.98,South,180,6.9,6.9,42,0.00,BKN,,0.00,WeatherDisplay:10.37,2013-07-27 20:08:00,
2013-07-27 16:13:00,78.4,53.4,29.98,South,180,6.9,6.9,42,0.00,BKN,,0.00,WeatherDisplay:10.37,2013-07-27 20:13:00,
2013-07-27 16:18:00,78.4,53.4,29.98,South,180,6.9,6.9,42,0.00,BKN,,0.00,WeatherDisplay:10.37,2013-07-27 20:18:00,
2013-07-27 16:23:00,78.4,53.4,29.98,South,180,6.9,6.9,42,0.00,BKN,,0.00,WeatherDisplay:10.37,2013-07-27 20:23:00,
2013-07-27 16:28:00,78.3,53.3,29.98,South,180,6.9,6.9,42,0.00,BKN,,0.00,WeatherDisplay:10.37,2013-07-27 20:28:00,
2013-07-27 16:33:00,78.3,55.8,29.98,SSE,150,8.1,8.1,46,0.00,BKN,,0.00,WeatherDisplay:10.37,2013-07-27 20:33:00,
2013-07-27 16:38:00,78.3,55.8,29.98,SSE,150,8.1,8.1,46,0.00,BKN,,0.00,WeatherDisplay:10.37,2013-07-27 20:38:00,
2013-07-27 16:43:00,78.3,55.8,29.98,SSE,150,8.1,8.1,46,0.00,BKN,,0.00,WeatherDisplay:10.37,2013-07-27 20:43:00,
2013-07-27 16:48:00,78.3,55.8,29.98,SSE,150,8.1,8.1,46,0.00,BKN,,0.00,WeatherDisplay:10.37,2013-07-27 20:48:00,
2013-07-27 16:53:00,78.3,55.8,29.95,SSE,150,8.1,8.1,46,0.00,BKN,,0.00,WeatherDisplay:10.37,2013-07-27 20:53:00,
2013-07-27 16:58:00,78.3,55.8,29.95,SSE,150,8.1,8.1,46,0.00,BKN,,0.00,WeatherDisplay:10.37,2013-07-27 20:58:00,
2013-07-27 17:03:00,78.3,56.4,29.95,SSE,150,6.9,8.1,47,0.00,BKN,,0.00,WeatherDisplay:10.37,2013-07-27 21:03:00,
2013-07-27 17:08:00,78.3,56.4,29.95,SSE,150,6.9,6.9,47,0.00,BKN,,0.00,WeatherDisplay:10.37,2013-07-27 21:08:00,
2013-07-27 17:13:00,78.3,56.4,29.95,SSE,150,6.9,6.9,47,0.00,BKN,,0.00,WeatherDisplay:10.37,2013-07-27 21:13:00,
2013-07-27 17:18:00,78.3,56.4,29.95,SSE,150,6.9,6.9,47,0.00,BKN,,0.00,WeatherDisplay:10.37,2013-07-27 21:18:00,
2013-07-27 17:23:00,78.3,56.4,29.95,SSE,150,6.9,6.9,47,0.00,BKN,,0.00,WeatherDisplay:10.37,2013-07-27 21:23:00,
2013-07-27 17:28:00,78.3,56.4,29.95,SSE,150,6.9,6.9,47,0.00,BKN,,0.00,WeatherDisplay:10.37,2013-07-27 21:28:00,
2013-07-27 17:33:00,78.3,56.4,29.95,SSE,150,6.9,6.9,47,0.00,BKN,,0.00,WeatherDisplay:10.37,2013-07-27 21:33:00,
2013-07-27 17:38:00,78.3,56.4,29.95,SSE,150,6.9,6.9,47,0.00,BKN,,0.00,WeatherDisplay:10.37,2013-07-27 21:38:00,
2013-07-27 17:43:00,78.3,56.4,29.95,SSE,150,6.9,6.9,47,0.00,BKN,,0.00,WeatherDisplay:10.37,2013-07-27 21:43:00,
2013-07-27 17:48:00,78.1,56.2,29.95,SSE,150,6.9,6.9,47,0.00,BKN,,0.00,WeatherDisplay:10.37,2013-07-27 21:48:00,
2013-07-27 17:53:00,77.9,56.0,29.95,SSE,150,6.9,6.9,47,0.00,BKN,,0.00,WeatherDisplay:10.37,2013-07-27 21:53:00,
2013-07-27 17:58:00,77.9,56.0,29.95,SSE,150,6.9,6.9,47,0.00,BKN,,0.00,WeatherDisplay:10.37,2013-07-27 21:58:00,
2013-07-27 18:03:00,77.9,54.8,29.95,SSE,150,6.9,6.9,45,0.00,BKN,,0.00,WeatherDisplay:10.37,2013-07-27 22:03:00,
2013-07-27 18:08:00,77.9,54.8,29.95,SSE,150,6.9,6.9,45,0.00,BKN,,0.00,WeatherDisplay:10.37,2013-07-27 22:08:00,
2013-07-27 18:13:00,77.9,54.8,29.95,SSE,150,6.9,6.9,45,0.00,BKN,,0.00,WeatherDisplay:10.37,2013-07-27 22:13:00,
2013-07-27 18:18:00,77.9,54.8,29.95,SSE,150,6.9,6.9,45,0.00,BKN,,0.00,WeatherDisplay:10.37,2013-07-27 22:18:00,
2013-07-27 18:23:00,77.9,54.8,29.95,SSE,150,6.9,6.9,45,0.00,BKN,,0.00,WeatherDisplay:10.37,2013-07-27 22:23:00,
2013-07-27 18:28:00,77.9,54.8,29.95,SSE,150,6.9,6.9,45,0.00,BKN,,0.00,WeatherDisplay:10.37,2013-07-27 22:28:00,
2013-07-27 18:33:00,77.9,54.8,29.95,SSE,150,6.9,6.9,45,0.00,BKN,,0.00,WeatherDisplay:10.37,2013-07-27 22:33:00,
2013-07-27 18:38:00,77.9,54.8,29.95,SSE,150,6.9,6.9,45,0.00,BKN,,0.00,WeatherDisplay:10.37,2013-07-27 22:38:00,
2013-07-27 18:43:00,77.9,54.8,29.95,SSE,150,6.9,6.9,45,0.00,BKN,,0.00,WeatherDisplay:10.37,2013-07-27 22:43:00,
2013-07-27 18:48:00,77.9,54.8,29.95,SSE,150,6.9,6.9,45,0.00,BKN,,0.00,WeatherDisplay:10.37,2013-07-27 22:48:00,
2013-07-27 18:53:00,77.9,54.8,29.95,SSE,150,6.9,6.9,45,0.00,BKN,,0.00,WeatherDisplay:10.37,2013-07-27 22:53:00,
2013-07-27 18:58:00,77.5,54.5,29.95,SSE,150,6.9,6.9,45,0.00,BKN,,0.00,WeatherDisplay:10.37,2013-07-27 22:58:00,
2013-07-27 19:03:00,77.5,56.3,29.95,SSE,160,8.1,8.1,48,0.00,BKN,,0.00,WeatherDisplay:10.37,2013-07-27 23:03:00,
2013-07-27 19:08:00,77.5,56.3,29.95,SSE,160,8.1,8.1,48,0.00,BKN,,0.00,WeatherDisplay:10.37,2013-07-27 23:08:00,
2013-07-27 19:13:00,77.4,56.1,29.95,SSE,160,8.1,8.1,48,0.00,BKN,,0.00,WeatherDisplay:10.37,2013-07-27 23:13:00,
2013-07-27 19:18:00,77.2,56.0,29.95,SSE,160,8.1,8.1,48,0.00,BKN,,0.00,WeatherDisplay:10.37,2013-07-27 23:18:00,
2013-07-27 19:23:00,77.2,56.0,29.95,SSE,160,8.1,8.1,48,0.00,BKN,,0.00,WeatherDisplay:10.37,2013-07-27 23:23:00,
2013-07-27 19:28:00,77.0,55.8,29.95,SSE,160,8.1,8.1,48,0.00,BKN,,0.00,WeatherDisplay:10.37,2013-07-27 23:28:00,
2013-07-27 19:33:00,77.0,55.8,29.95,SSE,160,8.1,8.1,48,0.00,BKN,,0.00,WeatherDisplay:10.37,2013-07-27 23:33:00,
2013-07-27 19:38:00,76.6,55.5,29.95,SSE,160,8.1,8.1,48,0.00,BKN,,0.00,WeatherDisplay:10.37,2013-07-27 23:38:00,
2013-07-27 19:43:00,76.6,55.5,29.95,SSE,160,8.1,8.1,48,0.00,BKN,,0.00,WeatherDisplay:10.37,2013-07-27 23:43:00,
2013-07-27 19:48:00,76.6,55.5,29.95,SSE,160,8.1,8.1,48,0.00,BKN,,0.00,WeatherDisplay:10.37,2013-07-27 23:48:00,
2013-07-27 19:53:00,76.3,55.1,29.95,SSE,160,8.1,8.1,48,0.00,BKN,,0.00,WeatherDisplay:10.37,2013-07-27 23:53:00,
2013-07-27 19:58:00,76.3,55.1,29.95,SSE,160,8.1,8.1,48,0.00,BKN,,0.00,WeatherDisplay:10.37,2013-07-27 23:58:00,
2013-07-27 20:03:00,75.7,54.7,29.95,SSE,160,8.1,8.1,48,0.00,BKN,,0.00,WeatherDisplay:10.37,2013-07-28 00:03:00,
2013-07-27 20:08:00,75.4,54.3,29.95,SSE,160,8.1,8.1,48,0.00,BKN,,0.00,WeatherDisplay:10.37,2013-07-28 00:08:00,
2013-07-27 20:13:00,75.4,54.3,29.95,SSE,160,8.1,8.1,48,0.00,BKN,,0.00,WeatherDisplay:10.37,2013-07-28 00:13:00,
2013-07-27 20:18:00,74.8,53.8,29.95,SSE,160,8.1,8.1,48,0.00,BKN,,0.00,WeatherDisplay:10.37,2013-07-28 00:18:00,
2013-07-27 20:23:00,74.8,53.8,29.95,SSE,160,8.1,8.1,48,0.00,BKN,,0.00,WeatherDisplay:10.37,2013-07-28 00:23:00,
2013-07-27 20:28:00,74.5,53.5,29.95,SSE,160,8.1,8.1,48,0.00,BKN,,0.00,WeatherDisplay:10.37,2013-07-28 00:28:00,
2013-07-27 20:33:00,74.3,55.0,29.95,SSE,150,5.8,8.1,51,0.00,BKN,,0.00,WeatherDisplay:10.37,2013-07-28 00:33:00,
2013-07-27 20:38:00,74.1,54.8,29.95,SSE,150,5.8,5.8,51,0.00,BKN,,0.00,WeatherDisplay:10.37,2013-07-28 00:38:00,
2013-07-27 20:43:00,74.3,55.0,29.95,SSE,150,5.8,5.8,51,0.00,BKN,,0.00,WeatherDisplay:10.37,2013-07-28 00:43:00,
2013-07-27 20:48:00,74.1,54.8,29.95,SSE,150,5.8,5.8,51,0.00,BKN,,0.00,WeatherDisplay:10.37,2013-07-28 00:48:00,
2013-07-27 20:53:00,74.1,54.8,29.95,SSE,150,5.8,5.8,51,0.00,BKN,,0.00,WeatherDisplay:10.37,2013-07-28 00:53:00,
2013-07-27 20:58:00,73.9,54.7,29.95,SSE,150,5.8,5.8,51,0.00,BKN,,0.00,WeatherDisplay:10.37,2013-07-28 00:58:00,
2013-07-27 21:03:00,73.8,58.5,29.95,SSE,150,4.6,5.8,59,0.00,SCT,,0.00,WeatherDisplay:10.37,2013-07-28 01:03:00,
2013-07-27 21:08:00,73.8,58.5,29.95,SSE,150,4.6,4.6,59,0.00,SCT,,0.00,WeatherDisplay:10.37,2013-07-28 01:08:00,
2013-07-27 21:13:00,73.4,58.2,29.95,SSE,150,4.6,4.6,59,0.00,SCT,,0.00,WeatherDisplay:10.37,2013-07-28 01:13:00,
2013-07-27 21:18:00,73.2,58.0,29.95,SSE,150,4.6,4.6,59,0.00,SCT,,0.00,WeatherDisplay:10.37,2013-07-28 01:18:00,
2013-07-27 21:23:00,73.2,58.0,29.95,SSE,150,4.6,4.6,59,0.00,SCT,,0.00,WeatherDisplay:10.37,2013-07-28 01:23:00,
2013-07-27 21:28:00,73.2,58.0,29.95,SSE,150,4.6,4.6,59,0.00,SCT,,0.00,WeatherDisplay:10.37,2013-07-28 01:28:00,
2013-07-27 21:33:00,73.4,58.2,29.95,SSE,150,4.6,4.6,59,0.00,SCT,,0.00,WeatherDisplay:10.37,2013-07-28 01:33:00,
2013-07-27 21:38:00,73.4,58.2,29.95,SSE,150,4.6,4.6,59,0.00,SCT,,0.00,WeatherDisplay:10.37,2013-07-28 01:38:00,
2013-07-27 21:43:00,73.6,58.4,29.95,SSE,150,4.6,4.6,59,0.00,SCT,,0.00,WeatherDisplay:10.37,2013-07-28 01:43:00,
2013-07-27 21:48:00,73.6,58.4,29.98,SSE,150,4.6,4.6,59,0.00,SCT,,0.00,WeatherDisplay:10.37,2013-07-28 01:48:00,
2013-07-27 21:53:00,73.6,58.4,29.98,SSE,150,4.6,4.6,59,0.00,SCT,,0.00,WeatherDisplay:10.37,2013-07-28 01:53:00,
2013-07-27 21:58:00,73.6,58.4,29.98,SSE,150,4.6,4.6,59,0.00,SCT,,0.00,WeatherDisplay:10.37,2013-07-28 01:58:00,
2013-07-27 22:03:00,73.6,58.4,29.98,SSE,150,4.6,4.6,59,0.00,SCT,,0.00,WeatherDisplay:10.37,2013-07-28 02:03:00,
2013-07-27 22:05:00,73.6,58.4,29.98,SSE,150,4.6,4.6,59,0.00,SCT,,0.00,WeatherDisplay:10.37,2013-07-28 02:05:00,
2013-07-27 22:10:00,73.8,58.5,29.98,SSE,150,4.6,4.6,59,0.00,SCT,,0.00,WeatherDisplay:10.37,2013-07-28 02:10:00,
2013-07-27 22:15:00,73.8,58.5,29.98,SSE,150,4.6,4.6,59,0.00,SCT,,0.00,WeatherDisplay:10.37,2013-07-28 02:15:00,
2013-07-27 22:20:00,73.6,58.4,29.98,SSE,150,4.6,4.6,59,0.00,SCT,,0.00,WeatherDisplay:10.37,2013-07-28 02:20:00,
2013-07-27 22:25:00,73.6,58.4,29.98,SSE,150,4.6,4.6,59,0.00,SCT,,0.00,WeatherDisplay:10.37,2013-07-28 02:25:00,
2013-07-27 22:30:00,73.6,58.4,29.98,SSE,150,4.6,4.6,59,0.00,SCT,,0.00,WeatherDisplay:10.37,2013-07-28 02:30:00,
2013-07-27 22:35:00,73.6,59.3,29.98,SSE,160,6.9,6.9,61,0.00,BKN,,0.00,WeatherDisplay:10.37,2013-07-28 02:35:00,
2013-07-27 22:40:00,73.4,59.1,29.98,SSE,160,6.9,6.9,61,0.00,BKN,,0.00,WeatherDisplay:10.37,2013-07-28 02:40:00,
2013-07-27 22:45:00,73.4,59.1,29.98,SSE,160,6.9,6.9,61,0.00,BKN,,0.00,WeatherDisplay:10.37,2013-07-28 02:45:00,
2013-07-27 22:50:00,73.2,59.0,29.98,SSE,160,6.9,6.9,61,0.00,BKN,,0.00,WeatherDisplay:10.37,2013-07-28 02:50:00,
2013-07-27 22:55:00,73.2,59.0,29.98,SSE,160,6.9,6.9,61,0.00,BKN,,0.00,WeatherDisplay:10.37,2013-07-28 02:55:00,
2013-07-27 23:00:00,73.2,59.0,29.98,SSE,160,6.9,6.9,61,0.00,BKN,,0.00,WeatherDisplay:10.37,2013-07-28 03:00:00,
2013-07-27 23:05:00,73.2,59.0,29.98,SSE,160,6.9,6.9,61,0.00,BKN,,0.00,WeatherDisplay:10.37,2013-07-28 03:05:00,
2013-07-27 23:10:00,73.0,58.8,29.98,SSE,160,6.9,6.9,61,0.00,BKN,,0.00,WeatherDisplay:10.37,2013-07-28 03:10:00,
2013-07-27 23:15:00,73.0,58.8,29.98,SSE,160,6.9,6.9,61,0.00,BKN,,0.00,WeatherDisplay:10.37,2013-07-28 03:15:00,
2013-07-27 23:20:00,73.0,60.6,29.98,SSE,160,11.5,11.5,65,0.00,BKN,,0.00,WeatherDisplay:10.37,2013-07-28 03:20:00,
2013-07-27 23:25:00,73.0,60.6,29.98,SSE,160,11.5,11.5,65,0.00,BKN,,0.00,WeatherDisplay:10.37,2013-07-28 03:25:00,
2013-07-27 23:30:00,73.0,60.6,29.98,SSE,160,11.5,11.5,65,0.00,BKN,,0.00,WeatherDisplay:10.37,2013-07-28 03:30:00,
2013-07-27 23:35:00,73.0,60.6,29.98,SSE,160,11.5,11.5,65,0.00,BKN,,0.00,WeatherDisplay:10.37,2013-07-28 03:35:00,
2013-07-27 23:40:00,73.0,60.6,29.98,SSE,160,11.5,11.5,65,0.00,BKN,,0.00,WeatherDisplay:10.37,2013-07-28 03:40:00,
2013-07-27 23:45:00,73.0,60.6,29.98,SSE,160,11.5,11.5,65,0.00,BKN,,0.00,WeatherDisplay:10.37,2013-07-28 03:45:00,
2013-07-27 23:50:00,73.0,60.6,29.98,SSE,160,11.5,11.5,65,0.00,BKN,,0.00,WeatherDisplay:10.37,2013-07-28 03:50:00,
2013-07-27 23:55:00,72.7,60.2,29.98,SSE,160,11.5,11.5,65,0.00,BKN,,0.00,WeatherDisplay:10.37,2013-07-28 03:55:00,